Simultaneous Nadir Overpasses (SNOs) Predictions

Prediction of SNOs between GOES-14 and AQUA Satellite Orbit:

Table of predicted SNOs for the next 14.0 days since TLE Epoch: 10/26/2019
Index Date Time (GOES-14) GOES-14 Lat,Lon AQUA Lat,Lon Distance(km) Time Diff (sec)
1 10/27/2019 20:26:30 -0.17,-104.14 0.18,-102.47 189.56 80
2 10/28/2019 08:47:46 0.15,-104.24 0.89,-107.64 386.77 80
3 10/30/2019 08:35:34 0.15,-104.24 0.27,-104.68 50.65 80
4 11/01/2019 08:20:42 0.16,-104.23 -0.35,-101.72 285.44 80
5 11/01/2019 20:42:06 -0.14,-104.12 -0.74,-106.91 317.23 80
6 11/03/2019 20:32:34 -0.13,-104.12 -0.10,-103.95 19.42 80
7 11/05/2019 20:20:22 -0.13,-104.13 0.54,-100.99 356.56 80
8 11/06/2019 08:41:38 0.11,-104.26 0.49,-106.17 216.24 80
9 11/08/2019 08:26:45 0.12,-104.26 -0.09,-103.20 120.65 80
10 11/08/2019 20:48:09 -0.09,-104.12 -0.98,-108.39 485.76 80




NCC Satellite Simultaneous Nadir Overpasses (SNOs) Prediction Service
